{"data":{"norad_id":67451,"epoch":"2026-09-19T22:07:00.710400Z","epoch_age_seconds":122154,"freshness":"FRESH","line1":"1 67451U 26008G   26262.92153600  .00009530  00000+0  35516-3 0  9992","line2":"2 67451  43.0025 188.6453 0000501 261.8201  98.2594 15.27600896 39272","mean_motion":15.27600896,"eccentricity":5.01e-5,"inclination_deg":43.0025,"raan_deg":188.6453,"arg_perigee_deg":261.8201,"mean_anomaly_deg":98.2594,"bstar":0.00035516,"rev_number":3927,"period_min":94.265459242045,"perigee_km":482.64278432292,"apogee_km":483.33026890029,"semimajor_km":6861.1235266116,"source":"CELESTRAK","updated_at":"2026-09-20T09:00:43.547513Z"}}